Theta_e
285 281 279 282 286 282 280 279 279 280 284 283 282 284 285 287 284 285 287 287 288 290 295 295 292 292 291 292 292 292 292 293 292 289 288 288 287 287 287 287 288 288 290 291
282 279 283 285 285 283 280 279 278 280 282 282 279 281 282 284 285 286 288 287 288 289 286 292 292 292 292 292 292 293 293 290 290 291 290 289 288 287 287 287 286 287 290 291
279 280 284 284 282 282 280 280 279 279 279 279 276 278 278 281 283 285 285 288 288 285 286 287 290 292 292 291 292 292 291 289 290 289 287 285 285 285 284 283 284 285 289 291
281 283 281 281 280 282 278 281 281 280 278 274 275 272 275 280 281 281 284 280 282 282 284 287 289 289 291 291 291 290 289 288 288 288 287 285 285 284 284 286 285 285 288 290
279 279 279 280 280 283 280 282 281 279 276 273 272 272 273 276 279 283 281 281 281 281 281 283 288 290 290 290 289 288 287 287 287 287 287 286 285 285 284 283 283 284 285 288
280 280 280 281 280 283 282 279 279 276 274 266 272 274 274 276 280 279 279 280 281 280 281 284 287 288 286 286 285 285 285 286 286 286 286 286 285 284 283 283 283 283 282 284
278 277 278 280 278 281 280 278 273 270 265 267 271 272 278 280 280 280 279 280 281 280 281 284 284 285 284 283 284 284 285 284 285 285 285 285 285 284 284 283 283 282 282 282
276 274 277 280 279 279 277 279 274 268 267 269 272 270 275 280 279 280 281 279 279 279 281 284 284 284 283 283 283 284 283 284 284 284 285 285 284 284 284 284 284 283 283 283
274 275 276 277 277 279 277 275 279 272 267 266 271 274 279 279 278 278 279 279 280 280 280 281 284 284 283 283 282 284 283 284 284 284 284 284 284 283 283 284 284 283 283 283
279 273 274 275 277 276 277 278 273 273 265 263 270 270 274 276 277 277 278 278 280 280 279 281 281 283 283 283 282 282 283 283 284 283 284 284 284 284 284 284 283 283 283 283
279 278 272 275 273 274 274 274 274 275 274 270 266 271 277 278 278 277 278 279 280 279 281 281 281 280 282 283 282 282 281 282 282 283 283 283 283 284 284 283 283 283 283 283
280 278 270 271 272 273 273 275 275 273 270 270 270 271 277 278 278 279 279 281 279 280 280 280 280 280 280 282 281 281 281 282 283 283 283 284 283 283 283 283 283 283 282 283
280 275 269 272 272 272 270 273 276 276 275 270 270 273 277 277 278 279 280 280 280 279 279 279 279 279 279 280 282 281 281 282 282 283 282 283 283 283 283 283 282 282 282 282
284 275 271 269 271 272 270 272 275 275 270 271 273 273 275 276 278 279 281 278 278 279 279 278 277 278 279 279 281 281 281 282 282 282 282 282 282 283 283 283 282 282 282 280
281 274 267 271 274 272 272 271 273 274 275 273 275 275 277 278 279 281 281 279 280 278 277 276 276 276 277 278 279 281 281 281 281 282 282 282 282 283 282 282 281 281 281 281
277 271 270 266 275 274 272 272 272 275 276 275 275 274 278 279 281 282 280 280 280 278 277 276 277 277 277 277 277 279 281 280 281 281 281 281 281 281 281 281 280 280 280 279
276 273 271 267 274 274 271 274 270 272 272 274 271 276 280 279 282 283 281 280 279 277 276 275 275 275 275 275 276 276 279 280 280 280 280 280 280 281 280 280 280 280 279 279
273 272 274 270 270 266 273 274 275 277 279 277 280 281 280 281 282 280 277 278 277 276 275 274 273 273 274 274 274 276 279 279 279 279 280 280 280 280 280 280 279 278 278 277
278 275 272 269 267 270 275 273 272 272 273 279 279 281 281 279 277 276 276 276 275 274 273 273 272 272 272 272 273 276 277 278 278 278 279 279 279 278 278 277 276 276 275 275
277 277 273 271 267 261 269 274 275 274 267 277 277 279 278 278 275 276 274 274 273 272 272 271 270 271 270 270 272 274 273 274 272 274 277 277 278 278 277 276 275 275 275 275
268 272 270 271 269 269 271 274 276 270 270 276 277 277 278 276 276 274 273 271 271 270 269 269 268 268 267 269 271 270 270 269 270 271 273 274 275 275 275 275 274 275 276 277
264 263 264 266 268 267 275 276 273 276 278 278 278 278 277 277 274 273 272 271 270 268 267 268 266 266 266 266 268 267 268 269 269 270 271 271 272 274 274 273 273 274 274 273
264 268 268 271 268 275 276 275 277 277 277 278 279 280 279 278 276 273 271 269 264 264 267 266 265 263 261 263 265 266 267 267 268 268 268 269 270 272 272 272 272 272 272 271
263 268 270 268 272 274 277 278 278 278 278 279 280 280 280 278 277 275 271 268 267 266 264 264 264 262 262 263 265 265 267 266 267 267 267 268 268 269 270 271 271 270 270 269
267 267 263 267 272 274 275 277 277 277 279 279 279 278 278 277 276 274 272 270 267 266 264 264 263 263 262 263 263 265 266 267 266 267 267 267 268 268 268 268 269 269 269 270
269 267 267 266 272 273 273 275 273 276 275 275 275 275 277 276 275 273 270 268 266 264 264 263 262 261 262 262 263 264 265 267 267 266 266 267 267 268 269 269 270 274 274 274
Wind_Speed
4 5 15 14 19 4 4 6 8 4 5 4 9 13 12 10 6 11 15 14 15 18 19 9 9 10 10 11 14 16 15 14 11 8 7 4 7 4 4 4 6 6 5 6
3 19 11 5 6 6 3 4 7 4 3 4 5 17 10 9 10 12 18 15 20 13 4 7 10 13 16 18 18 17 16 16 14 11 10 6 6 3 4 4 5 5 6 6
12 4 9 14 6 10 9 14 8 5 2 3 3 12 7 8 9 10 11 20 12 9 10 10 11 16 14 16 19 19 18 17 15 15 8 4 5 3 3 4 3 4 5 6
10 5 4 6 16 11 12 9 6 3 5 6 0 11 5 6 8 6 12 3 9 9 10 9 11 11 16 18 14 15 16 17 14 16 13 12 9 7 5 6 3 4 5 5
10 4 6 7 8 12 6 5 7 5 4 2 3 2 5 1 7 14 5 4 6 7 8 8 9 12 10 10 12 12 13 14 14 15 14 11 8 4 4 4 7 5 4 5
5 2 3 2 3 6 8 6 6 4 3 2 9 8 7 6 11 3 1 5 7 9 8 4 4 6 6 7 8 10 13 14 13 14 13 15 13 10 7 7 7 6 3 4
3 4 1 2 6 4 2 7 1 2 1 9 1 4 15 7 6 5 4 4 8 8 5 3 4 6 7 9 9 9 12 13 13 14 13 14 13 12 12 11 8 9 5 4
13 10 9 6 5 11 7 7 7 7 5 4 4 10 10 3 1 5 6 4 2 5 8 6 2 5 6 7 8 11 12 12 13 13 13 11 10 8 8 9 8 8 7 6
5 6 2 3 2 4 7 8 4 4 1 3 6 8 10 5 3 4 7 5 7 7 6 7 6 4 6 7 9 12 12 11 12 13 10 11 9 10 10 11 9 8 6 5
3 3 2 2 1 1 3 4 6 1 4 5 5 6 9 4 9 7 6 7 7 6 4 5 6 5 4 6 6 7 8 12 10 9 10 10 10 10 8 9 11 10 8 8
2 3 1 2 6 7 3 3 1 3 3 7 2 9 7 9 11 11 8 7 7 2 3 5 7 5 4 4 7 7 7 8 8 10 10 9 9 9 10 10 10 11 10 10
3 2 5 8 1 2 2 5 6 5 6 2 3 10 6 8 12 9 8 7 2 4 6 7 8 9 7 4 4 7 6 9 10 10 9 10 9 9 10 10 11 10 11 10
2 3 2 3 4 4 3 5 3 3 2 6 7 7 6 6 7 6 9 5 2 5 7 6 7 7 7 6 5 6 6 8 7 9 9 9 10 11 11 10 10 10 10 10
5 3 6 7 4 3 4 5 7 5 4 5 11 4 4 4 6 6 5 3 4 4 2 4 6 7 9 8 6 5 6 6 7 9 9 10 11 12 11 10 11 11 11 10
4 4 1 4 4 2 3 4 8 13 15 9 13 14 7 10 7 6 6 3 2 3 7 7 6 6 7 8 8 6 5 7 8 9 10 10 9 8 8 9 9 10 10 10
1 4 1 4 5 5 5 8 9 17 18 17 14 22 8 7 3 4 4 4 8 7 6 6 7 9 10 11 10 9 6 6 8 9 9 7 7 8 9 10 10 10 10 10
3 3 1 6 4 5 9 18 10 5 5 8 15 16 4 4 4 5 6 2 3 4 4 5 7 8 9 10 11 10 7 6 7 8 7 8 8 9 9 9 11 11 11 11
3 2 3 2 1 7 8 3 4 20 16 15 19 17 8 4 5 4 3 3 4 2 3 5 6 8 8 9 10 11 4 5 6 6 8 8 8 8 8 9 9 9 9 10
15 6 4 3 4 8 12 4 6 8 7 6 17 16 7 5 5 1 3 4 2 1 3 4 4 5 7 8 10 8 4 4 5 6 7 7 9 10 9 9 9 8 11 9
10 14 6 3 4 8 5 4 1 3 5 17 7 5 5 6 4 2 2 2 3 4 4 6 6 5 7 9 9 7 7 5 5 2 5 6 8 10 10 10 11 7 9 11
1 3 15 12 6 6 5 9 3 5 2 8 15 13 11 6 2 3 3 3 3 4 6 6 5 5 7 8 6 7 7 8 5 4 6 7 7 9 11 11 10 11 13 14
4 3 4 2 4 7 9 5 7 5 9 12 14 14 14 6 3 2 3 3 4 5 4 6 5 6 7 7 5 6 8 5 5 8 9 9 9 8 9 13 11 13 14 15
3 1 4 5 4 7 11 15 8 10 8 12 10 11 12 13 6 2 3 3 2 2 3 3 3 3 5 6 5 6 4 5 7 10 10 9 10 10 10 13 13 11 11 12
4 2 1 6 6 8 3 2 11 7 3 5 5 6 6 8 8 4 3 3 2 1 1 1 2 4 5 6 6 5 5 5 8 10 10 9 10 11 10 8 8 10 10 10
6 3 4 6 13 2 5 3 1 5 2 7 5 5 5 4 8 5 5 2 2 2 1 2 3 3 4 4 5 5 5 6 10 10 9 9 9 10 11 9 8 8 7 9
5 10 7 11 3 4 7 8 13 9 8 9 7 8 8 5 7 5 6 3 3 4 2 2 4 4 3 3 6 5 5 5 10 10 7 7 8 8 10 11 12 21 21 24
Wind_Direction
197 166 214 195 202 193 183 204 201 224 203 159 224 251 244 257 234 255 256 258 251 243 249 217 191 184 175 170 171 175 169 172 160 164 158 166 184 172 184 200 200 193 177 164
114 231 215 188 220 212 179 186 232 277 218 185 278 265 235 245 242 224 243 248 248 259 268 207 191 185 187 181 179 178 182 173 176 174 178 175 175 173 161 189 207 193 175 167
194 208 189 186 183 204 222 227 229 219 64 235 305 277 234 264 257 268 251 248 277 262 254 223 202 194 185 186 185 184 181 174 178 171 152 108 90 77 132 187 198 198 182 168
244 212 139 178 219 184 229 191 168 172 119 235 178 284 280 234 255 271 263 278 262 269 263 245 201 192 193 196 185 179 177 175 176 168 170 172 182 173 186 173 161 171 187 177
232 201 182 184 211 176 232 133 164 149 162 42 230 266 260 138 259 255 340 351 310 298 298 264 210 204 199 172 177 174 170 176 172 177 179 175 182 161 139 136 152 165 179 181
248 282 248 246 73 152 151 84 65 67 118 312 186 164 250 193 219 120 96 327 329 331 331 301 201 153 153 141 149 161 169 178 173 178 179 182 182 165 152 161 172 174 171 177
146 201 229 186 89 51 164 126 152 317 14 229 239 179 248 269 222 182 117 41 357 344 349 57 142 167 162 166 166 166 171 180 176 180 184 186 180 173 175 171 180 171 171 180
211 241 174 180 207 168 188 167 159 205 208 220 117 227 251 250 226 144 131 136 128 34 39 39 241 205 194 176 171 176 179 180 179 183 188 183 173 176 180 177 175 184 187 184
167 238 5 45 346 121 175 209 127 120 10 49 213 279 296 188 108 114 147 104 71 44 23 15 324 257 207 188 193 189 182 187 185 188 181 180 171 174 181 175 173 176 166 159
226 277 42 352 302 54 157 167 159 278 161 224 256 268 234 172 176 172 166 121 82 60 20 338 321 295 246 217 197 195 187 191 187 180 184 186 178 178 167 164 170 169 161 161
130 145 31 37 207 177 156 186 246 148 168 186 240 256 228 181 168 166 166 138 107 108 303 311 318 309 306 223 192 194 187 181 178 181 178 174 178 174 165 170 173 170 161 165
222 196 189 205 359 358 325 209 169 155 205 224 156 262 329 162 156 146 142 124 93 353 342 332 335 328 339 307 224 208 185 186 189 184 173 178 171 166 169 171 171 168 170 167
249 250 78 297 356 3 215 199 179 124 89 202 162 258 359 109 128 132 135 118 320 334 341 345 350 353 352 327 256 210 195 200 175 170 172 169 174 176 179 174 167 165 162 163
316 211 218 210 185 118 193 208 175 140 189 187 234 101 248 230 148 152 152 215 258 240 53 14 360 348 341 340 318 242 212 187 169 170 173 175 182 185 181 170 166 162 160 153
230 259 194 274 253 161 225 192 195 201 219 202 261 232 218 224 204 203 198 109 19 35 34 16 358 344 335 339 343 311 227 180 168 173 177 186 182 176 161 156 159 155 157 157
352 278 135 278 214 183 262 251 204 215 226 241 276 271 208 265 272 356 351 10 27 17 13 359 354 353 348 341 334 321 257 193 169 173 181 162 155 155 162 157 149 147 145 143
240 211 194 255 211 160 264 232 195 196 216 196 224 244 181 206 226 253 276 106 85 28 352 359 355 349 338 330 325 312 285 175 173 161 156 156 156 157 158 152 148 150 149 140
242 220 209 284 122 217 237 49 206 214 228 223 254 252 199 195 168 130 42 123 101 33 355 360 358 338 330 323 324 315 296 163 157 155 153 148 148 145 144 146 145 132 138 138
212 218 252 229 208 312 301 196 169 162 255 276 251 262 220 157 87 35 68 42 69 50 16 2 355 321 319 330 327 327 32 122 136 149 150 148 143 137 136 133 132 128 122 117
209 224 225 203 210 212 246 314 240 130 4 347 291 296 139 119 134 256 126 49 49 33 26 5 346 335 343 340 338 24 27 52 43 75 130 127 135 139 132 126 124 110 111 114
17 218 225 231 245 280 311 306 291 86 42 330 25 37 48 62 63 44 93 64 46 25 359 1 4 17 350 341 360 44 45 39 350 40 74 81 89 105 115 109 110 115 117 114
197 172 214 185 236 260 347 346 58 344 37 21 14 12 6 20 41 41 50 67 49 17 352 1 8 12 358 354 36 53 54 22 30 63 75 81 91 102 109 111 113 117 119 112
287 20 310 350 69 315 47 95 89 44 23 1 351 354 2 357 13 110 359 2 11 15 2 11 6 8 354 2 39 68 37 40 68 77 78 83 89 93 105 115 117 114 117 118
296 219 282 19 191 45 278 293 11 102 66 48 355 339 334 320 308 324 176 198 220 300 346 11 33 34 27 14 43 55 70 66 83 87 86 90 94 95 95 99 108 118 122 118
188 137 209 257 285 248 214 197 217 33 352 144 195 214 235 249 297 301 290 278 165 168 357 11 67 59 42 24 48 46 63 94 94 93 94 97 96 98 95 84 94 104 97 121
171 217 220 254 189 243 300 48 26 27 26 359 350 333 321 288 257 222 245 221 158 152 155 115 69 62 13 42 57 48 51 93 110 104 101 105 107 107 106 108 107 101 110 114